Location: Newark
(13.6797°N, 8.5297°E)
Time: 05:08:11
(UTC+00:00)

Courier 1B Rocket - Pass Details

Date: 21 January 2020
Orbit: 920 x 1202 km, 28.2° (Epoch: 25 February)

Event Time Altitude Azimuth Distance (km) Brightness Sun altitude
Rises 14:54:15 0° 299° (WNW) 3,669 8.3 31.0°
Reaches altitude 10° 14:57:40 10° 315° (NW) 2,679 7.5 30.3°
Maximum altitude 15:02:24 21° 3° (N) 1,952 6.5 29.4°
Drops below altitude 10° 15:07:01 10° 51° (NE) 2,607 6.8 28.4°
Sets 15:10:17 0° 67° (ENE) 3,544 7.4 27.7°
